Voltar ao catálogo

STARLINK-31535

AtivoComunicaçõesVLEO
NORAD 59504·PAYLOAD·🇺🇸 United States

Lançado Apr 13, 2024 de Cape Canaveral Space Force Station

Loading…

Próximas Passagens (próximas 24 horas)

TLE

AtualizadoSource: CelesTrak SupGP

Época: Sep 15, 2026, 02:26 UTC

1 59504C 24071W   26258.10187500  .00029314  00000+0  10621-2 0  2580
2 59504  43.0017 357.8093 0001532 272.4060  98.5615 15.27554511    18

Acompanhe STARLINK-31535 em tempo real com AllMySat

Download on the App Store